Location: Herksen
(52.4316°N, 6.1319°E)
Time: 07:49:27
(UTC+00:00)

Cosmos 1544 Rocket - Pass Details

Date: 15 May 2026
Orbit: 597 x 624 km, 82.5° (Epoch: 5 June)

Event Time Altitude Azimuth Distance (km) Brightness Sun altitude
Exits shadow 19:59:07 - 165° (SSE) 2,770 6.4 -5.0°
Reaches altitude 10° 20:01:14 10° 157° (SSE) 1,957 5.6 -5.2°
Maximum altitude 20:05:10 35° 91° (E) 978 4.2 -5.7°
Drops below altitude 10° 20:09:07 10° 26° (NNE) 1,958 6.4 -6.1°
Sets 20:11:27 0° 18° (NNE) 2,863 7.3 -6.4°
